Miscellaneous Local Product
Issued by NWS Hastings, NE

Home | Current Version | Previous Version | Graphics & Text | Print | Product List | Glossary On
Versions: 1 2 3 4 5 6 7 8 9 10 11 12 13 14 15 16 17 18 19 20 21 22 23 24 25 26 27 28 29 30 31 32 33 34 35 36 37 38 39 40 41 42 43 44 45 46 47 48 49 50
454
AXUS43 KGID 271502
MISGRI

GID CWA HOURLY WEATHER ROUNDUP
NATIONAL WEATHER SERVICE HASTINGS NE
1000 AM CDT THU APR 27 2017

NOTE: "FAIR" INDICATES FEW OR NO CLOUDS BELOW 12,000 FEET WITH NO
SIGNIFICANT WEATHER AND/OR OBSTRUCTIONS TO VISIBILITY.

...SOUTH CENTRAL NEBRASKA...

CITY           SKY/WX    TMP DP  RH WIND       PRES   REMARKS
GRAND ISLAND   SUNNY     45  33  63 VRB5      29.73R
HASTINGS       CLOUDY    44  32  62 N3        29.74R
KEARNEY        CLOUDY    39  30  70 CALM      29.72S
ORD            SUNNY     41  32  70 NW5       29.69F
YORK           SUNNY     45  32  61 NE8       29.72F
AURORA         SUNNY     44  31  60 NW6       29.72R
LEXINGTON      PTSUNNY   43  31  62 E5        29.69F
HOLDREGE       CLOUDY    42  30  62 E7        29.70S
HEBRON         PTSUNNY   45  32  60 CALM      29.75R

...NEBRASKA PANHANDLE...

CITY           SKY/WX    TMP DP  RH WIND       PRES   REMARKS
CHADRON        PTSUNNY   39  33  79 NE7       29.62F WCI  34
ALLIANCE       CLOUDY    40  32  73 SE14      29.59F WCI  32
SCOTTSBLUFF    CLOUDY    42  37  82 E13       29.58S
SIDNEY         CLOUDY    40  37  89 N7        29.60R

...WESTERN AND NORTH CENTRAL NEBRASKA...

CITY           SKY/WX    TMP DP  RH WIND       PRES   REMARKS
VALENTINE      SUNNY     40  28  62 NE7       29.68F
AINSWORTH      SUNNY     38  32  79 NE6       29.69S WCI  33
ONEILL         CLOUDY    35  31  85 N9        29.72F WCI  27
BROKEN BOW     CLOUDY    42  33  70 S5        29.69R
IMPERIAL       CLOUDY    43  33  68 SE12      29.61F
NORTH PLATTE   PTSUNNY   45  33  63 E12       29.66F
MCCOOK         CLOUDY    42  32  67 SE14      29.67R

...EASTERN NEBRASKA...

CITY           SKY/WX    TMP DP  RH WIND       PRES   REMARKS
NORFOLK        CLOUDY    36  29  75 NW10      29.71R WCI  28
SO SIOUX CITY  CLOUDY    36  28  73 NW16      29.72R WCI  26
TEKAMAH        CLOUDY    38  29  70 NW15      29.73S WCI  29
COLUMBUS       MOSUNNY   39  28  65 N13       29.73S WCI  32
ALBION         PTSUNNY   38  31  76 N8        29.72S WCI  32
OMAHA EPPLEY   CLOUDY    40  31  70 NW9       29.73S WCI  34
OFFUTT AFB     CLOUDY    43  30  58 VRB7      29.72S
MILLARD        CLOUDY    42  33  72 NW7       29.73S
LINCOLN        SUNNY     46  31  55 NW13      29.74S
NEBRASKA CITY  MOSUNNY   44  31  61 NW6       29.72S
BEATRICE       SUNNY     45  33  62 W6        29.74S
FALLS CITY     SUNNY     47  34  60 W13       29.73R

...NORTHERN KANSAS...

CITY           SKY/WX    TMP DP  RH WIND       PRES   REMARKS
GOODLAND       CLOUDY    49  35  58 S15       29.58F
HILL CITY      CLOUDY    45  34  65 SE10      29.71S
NORTON         CLOUDY    39  28  65 E13       29.69S WCI  32
PHILLIPSBURG   CLOUDY    48  34  57 SE8       29.73S
SMITH CENTER   PTSUNNY   45  32  61 E6        29.74S
HAYS           CLOUDY    46  35  65 E16       29.71F
RUSSELL        PTSUNNY   45  35  68 E10       29.73S
CONCORDIA      PTSUNNY   46  33  60 NW5       29.76R
SALINA         PTSUNNY   49  35  58 S5        29.78R
TOPEKA         SUNNY     50  36  58 W12       29.75F



USA.gov is the U.S. government's official web portal to all federal, state and local government web resources and services.